DW0489 Weather Reports


time (UTC)temp
C
wind
direction
speed
KPH
gust
KPH
rain 1hr
cm
rain 24hr
cm
rain mn
cm
humidity
%
barometer
mb
20260506124526 16 206 4.8 14.5 0.00 0.00 0.00 79 1009.4
20260506123025 16 190 4.8 17.7 0.00 0.00 0.00 80 1009.4
20260506121525 16 230 4.8 17.7 0.00 0.00 0.00 80 1009.7
20260506120024 16 193 3.2 14.5 0.00 0.00 0.00 81 1009.8
20260506114538 15 204 4.8 16.1 0.00 0.00 0.00 83 1009.6
20260506113026 14 197 1.6 6.4 0.00 0.00 0.00 86 1009.5
20260506111529 14 161 1.6 8.0 0.00 0.00 0.00 86 1009.8
20260506110029 14 130 1.6 6.4 0.00 0.00 0.00 86 1009.7
20260506104527 14 178 1.6 8.0 0.00 0.00 0.00 85 1010.0
20260506103023 14 169 1.6 6.4 0.00 0.00 0.00 85 1009.7
20260506101542 14 193 0.0 8.0 0.00 0.00 0.00 85 1009.4
20260506100022 14 194 1.6 11.3 0.00 0.00 0.00 85 1009.6
20260506094521 14 208 3.2 8.0 0.00 0.00 0.00 86 1009.4
20260506093018 13 205 3.2 11.3 0.00 0.00 0.00 89 1009.5
20260506091519 13 204 0.0 4.8 0.00 0.00 0.00 87 1009.5
20260506090029 13 73 0.0 0.0 0.00 0.00 0.00 86 1009.6
20260506084529 13 194 0.0 0.0 0.00 0.00 0.00 86 1009.8
20260506083026 13 171 0.0 3.2 0.00 0.00 0.00 85 1009.8
20260506081521 13 117 0.0 3.2 0.00 0.00 0.00 84 1009.8
20260506073012 13 194 0.0 3.2 0.00 0.00 0.00 82 1009.9
20260506071528 14 70 0.0 3.2 0.00 0.00 0.00 81 1010.0
20260506061520 15 195 0.0 1.6 0.00 0.00 0.00 75 1009.9
20260506044527 17 185 1.6 11.3 0.00 0.00 0.00 68 1010.5
20260506043025 17 197 3.2 8.0 0.00 0.00 0.00 67 1010.4
20260506041527 17 191 1.6 11.3 0.00 0.00 0.00 65 1010.5
20260506040029 18 169 3.2 19.3 0.00 0.00 0.00 65 1010.4
20260506034526 18 226 6.4 11.3 0.00 0.00 0.00 64 1010.4
20260506033031 18 193 4.8 17.7 0.00 0.00 0.00 63 1010.3
20260506031528 18 200 3.2 17.7 0.00 0.00 0.00 63 1010.2
20260506030007 18 204 4.8 16.1 0.00 0.00 0.00 62 1010.2
20260506024512 18 208 4.8 16.1 0.00 0.00 0.00 62 1010.1
20260506023013 18 214 6.4 19.3 0.00 0.00 0.00 62 1010.1
20260506021513 18 212 4.8 19.3 0.00 0.00 0.00 61 1010.1
20260506020015 18 176 4.8 20.9 0.00 0.00 0.00 61 1010.0
20260506014517 19 213 9.7 17.7 0.00 0.00 0.00 60 1010.0
20260506013022 19 222 3.2 19.3 0.00 0.00 0.00 60 1009.8
20260506011512 19 199 3.2 14.5 0.00 0.00 0.00 59 1009.6
20260506010015 20 202 1.6 9.7 0.00 0.00 0.00 57 1009.5
20260506004523 20 235 3.2 8.0 0.00 0.00 0.00 56 1009.4
20260506003012 20 225 4.8 12.9 0.00 0.00 0.00 57 1009.3
20260506001516 20 200 3.2 11.3 0.00 0.00 0.00 57 1009.0
20260506000018 20 238 1.6 9.7 0.00 0.00 0.00 57 1008.9
20260505234512 20 190 1.6 14.5 0.00 0.00 0.00 58 1008.7
20260505233015 20 284 4.8 11.3 0.00 0.00 0.00 57 1008.5
20260505231515 21 189 3.2 14.5 0.00 0.00 0.00 57 1008.3
20260505230017 21 196 1.6 14.5 0.00 0.00 0.00 55 1008.1
20260505224514 21 203 8.0 14.5 0.00 0.00 0.00 54 1008.0
20260505223013 22 228 6.4 14.5 0.00 0.00 0.00 55 1007.8
20260505221512 22 195 6.4 19.3 0.00 0.00 0.00 54 1007.9
20260505220022 22 194 8.0 20.9 0.00 0.00 0.00 53 1008.0
20260505214529 23 183 8.0 19.3 0.00 0.00 0.00 52 1007.9
20260505213021 23 194 1.6 20.9 0.00 0.00 0.00 51 1007.6
20260505211514 23 183 8.0 19.3 0.00 0.00 0.00 50 1007.5
20260505210018 24 194 8.0 17.7 0.00 0.00 0.00 52 1007.3
20260505204525 24 201 3.2 16.1 0.00 0.00 0.00 51 1007.5
20260505203009 24 198 12.9 33.8 0.00 0.00 0.00 50 1007.7
20260505201518 24 249 14.5 35.4 0.00 0.00 0.00 47 1007.7
20260505200018 25 244 6.4 29.0 0.00 0.00 0.00 48 1007.8
20260505194520 25 174 8.0 33.8 0.00 0.00 0.00 48 1008.0
20260505193035 25 159 8.0 35.4 0.00 0.00 0.00 47 1008.0
20260505191519 25 115 12.9 27.4 0.00 0.00 0.00 46 1007.9
20260505190028 25 209 8.0 22.5 0.00 0.00 0.00 50 1008.3
20260505184515 25 209 8.0 22.5 0.00 0.00 0.00 47 1008.5
20260505183027 25 249 6.4 24.1 0.00 0.00 0.00 49 1008.7
20260505181521 25 168 8.0 27.4 0.00 0.00 0.00 46 1008.7
20260505180031 25 186 6.4 22.5 0.00 0.00 0.00 48 1008.7
20260505174528 25 170 3.2 19.3 0.00 0.00 0.00 49 1008.7
20260505173028 25 205 6.4 22.5 0.00 0.00 0.00 49 1008.8
20260505171528 25 262 8.0 27.4 0.00 0.00 0.00 45 1008.9
20260505170021 25 253 3.2 22.5 0.00 0.00 0.00 48 1009.0
20260505164531 25 239 4.8 19.3 0.00 0.00 0.00 48 1009.3
20260505163023 25 218 3.2 25.7 0.00 0.00 0.00 49 1009.4
20260505161520 24 228 8.0 27.4 0.00 0.00 0.00 50 1009.9
20260505153025 23 202 11.3 20.9 0.00 0.00 0.00 51 1010.1
20260505151520 22 204 8.0 24.1 0.00 0.00 0.00 54 1010.2